Temp
25 25 25 25 25 25 25 25 25 25 25 25 25 26 26 26 26 26 26 26 26 27 27 26 26 26 26 26 26 26 26 25 25 25 25 25 25 24 24 24 24 24 24 24 24 24 24 24 24 24 24 24 24 25 24 25 25 25 25 25 25 25 25 25 23 23 24 25 25 25 26 25 25 25 24 24 24 24 23 23 23 23 23 23 23
26 25 25 25 25 25 25 25 25 25 25 25 25 25 26 26 26 26 26 26 26 27 27 27 27 27 26 26 26 26 26 25 25 25 25 25 25 24 24 24 24 24 24 24 24 24 24 24 24 24 24 24 24 24 24 24 24 25 25 25 25 25 25 25 24 23 24 25 25 25 25 25 25 25 25 24 24 24 23 23 23 23 23 23 23
26 26 25 25 25 25 25 25 25 25 25 25 25 25 26 26 26 26 26 26 27 27 27 27 27 27 27 27 26 26 26 26 25 25 25 25 25 24 24 24 24 24 24 24 24 24 24 24 24 24 24 24 24 24 24 24 24 24 25 24 25 25 24 24 24 24 23 24 25 24 24 24 24 24 24 24 24 24 24 23 23 23 23 23 23
26 26 26 25 25 25 25 25 25 25 25 25 25 25 26 26 26 27 27 27 27 27 27 27 27 27 27 27 27 26 26 26 26 25 25 25 25 25 25 24 24 24 24 24 24 24 24 24 24 24 24 24 24 24 24 24 24 24 24 24 24 24 24 24 24 24 24 23 24 24 24 24 24 24 24 24 24 24 24 23 23 23 23 23 23
26 26 26 26 25 25 25 25 25 25 25 25 25 26 26 26 26 27 27 27 27 27 27 27 27 27 27 27 27 27 26 26 26 26 25 25 25 25 25 25 25 25 25 25 24 24 24 24 24 24 24 24 24 24 24 24 24 24 24 24 24 24 24 24 24 24 24 23 23 24 24 24 24 24 24 24 24 24 24 23 23 23 23 23 22
27 26 26 26 26 26 25 25 25 25 25 25 26 26 26 26 26 27 27 27 27 27 27 27 27 27 27 27 27 27 27 26 26 26 26 25 25 25 25 25 25 25 25 25 25 25 25 24 24 24 24 24 24 24 24 24 24 24 24 24 24 24 24 24 24 24 24 23 23 23 24 24 24 24 24 24 24 24 23 23 23 23 23 22 22
27 27 27 26 26 26 26 26 26 25 26 26 26 26 26 26 27 27 27 27 27 27 27 27 27 27 27 27 27 27 27 27 26 26 26 26 25 25 25 25 25 25 25 25 25 25 25 25 25 24 24 24 24 24 24 24 24 24 24 24 24 24 24 24 24 24 23 23 23 23 23 24 24 24 24 24 24 24 23 23 23 23 23 23 22
28 27 27 27 26 26 26 26 26 26 26 26 26 26 27 27 27 27 27 27 27 27 27 27 27 27 27 27 27 27 27 27 26 26 26 26 26 25 25 25 25 25 25 25 25 25 25 25 25 25 24 24 24 25 24 24 24 24 24 24 24 24 24 24 23 23 23 23 22 23 23 23 23 23 23 24 23 23 24 23 23 23 23 23 23
28 28 27 27 27 27 26 26 26 26 26 26 26 27 27 27 27 27 27 27 27 27 27 27 27 27 27 27 27 27 27 27 26 26 26 26 26 26 26 25 25 25 25 25 25 25 25 25 25 25 25 25 25 25 25 25 24 24 24 24 24 24 23 23 23 23 22 22 22 22 22 22 23 23 23 23 23 23 23 23 23 23 23 23 23
29 28 28 27 27 27 27 27 26 26 26 26 27 27 27 27 27 28 28 27 27 27 28 28 28 27 27 27 27 27 27 27 27 27 27 26 26 26 26 26 25 25 25 25 25 25 25 25 25 25 25 25 25 25 25 25 25 25 25 25 24 24 23 23 23 23 22 22 22 22 21 21 22 22 22 23 23 23 23 23 23 23 22 22 22
29 29 28 28 28 27 27 27 27 27 27 27 27 27 27 27 28 28 28 28 28 28 28 28 28 28 27 27 27 27 27 27 27 27 27 27 27 26 26 26 26 25 25 25 25 25 25 25 25 25 25 25 25 25 25 25 25 25 25 25 25 24 24 23 23 23 22 22 22 22 21 21 22 22 22 22 23 23 23 23 22 22 22 21 21
30 29 29 28 28 28 27 27 27 27 27 27 27 27 27 27 28 28 28 28 28 28 28 28 28 28 28 27 27 27 27 27 27 27 27 27 27 27 26 26 26 25 25 25 25 25 25 25 25 25 25 25 25 25 25 25 25 25 25 25 25 25 25 24 24 23 23 22 22 22 22 22 22 22 22 22 22 22 22 22 22 22 22 21 21
30 30 29 29 28 28 27 27 27 27 27 27 27 27 27 27 28 28 28 28 28 28 28 28 28 28 28 28 27 27 27 27 27 27 27 27 27 27 26 26 26 26 26 25 25 25 25 25 25 25 25 25 25 25 25 25 25 25 25 25 25 25 25 25 25 25 24 23 23 22 22 22 22 22 22 22 22 22 22 22 22 22 22 21 22
31 30 30 29 29 28 28 28 27 27 27 27 27 27 27 28 28 28 28 28 28 28 28 28 28 28 28 28 28 28 28 27 27 27 27 27 27 27 27 26 26 26 26 26 26 26 25 25 25 25 25 25 25 25 25 25 25 25 24 24 24 24 24 24 25 24 24 24 23 23 24 23 23 23 23 23 23 22 22 22 22 22 22 22 22
31 30 30 29 29 28 28 28 27 27 27 27 27 27 27 28 28 28 28 28 28 29 28 28 28 28 28 28 28 28 28 28 28 27 27 27 27 27 27 26 26 26 26 26 26 26 26 26 26 26 26 26 26 26 26 25 25 24 24 24 24 24 24 24 24 24 24 24 24 24 24 24 24 24 23 23 23 23 23 23 23 22 22 22 22
31 30 30 30 29 29 28 28 28 28 27 27 27 27 27 27 28 28 28 28 29 29 29 29 28 28 28 28 28 28 28 28 28 28 28 27 27 27 27 26 26 26 26 26 26 26 26 26 26 26 26 26 26 26 26 26 25 24 24 23 23 23 23 24 25 25 24 24 24 24 24 24 24 24 23 23 23 23 23 23 23 22 21 21 21
31 30 30 30 29 29 29 28 28 28 28 27 27 27 27 28 28 28 28 28 29 29 29 29 29 29 29 28 28 28 28 28 28 28 28 28 27 27 26 26 26 26 26 26 26 26 26 26 26 26 26 26 26 26 26 26 26 25 24 23 23 23 23 24 24 24 24 24 24 24 24 24 24 24 23 23 23 23 23 22 22 22 21 20 20
31 30 30 30 30 29 29 29 28 28 28 27 27 27 28 28 28 28 28 28 29 29 29 29 29 29 29 29 29 29 29 29 28 28 28 28 27 27 26 26 26 26 26 26 26 26 26 26 26 26 26 26 26 26 26 26 26 25 24 24 23 23 23 23 23 23 24 24 24 24 24 24 24 23 23 23 23 23 23 22 22 22 21 20 20
31 31 30 30 30 30 29 29 29 28 28 28 28 28 28 28 28 28 28 28 28 29 29 29 29 29 29 29 29 29 28 29 29 28 28 28 28 27 27 26 25 25 25 25 26 26 26 26 26 26 26 26 26 26 26 26 26 26 25 24 23 23 23 23 23 23 23 23 23 23 23 23 23 23 23 23 23 23 23 23 23 22 21 21 20
32 31 31 31 30 30 29 29 29 29 28 28 28 28 28 28 28 28 28 28 28 29 29 29 29 29 29 29 29 29 29 29 28 28 28 28 28 28 27 26 25 25 25 25 25 25 26 26 26 26 26 26 26 26 26 26 26 26 25 25 24 24 24 24 24 23 23 23 23 22 22 23 23 23 23 23 23 23 23 23 23 22 22 21 21
32 32 31 31 30 30 30 29 29 29 28 28 28 28 28 28 28 28 28 28 28 28 29 29 29 29 29 29 29 29 29 29 28 28 28 28 28 28 27 26 26 25 25 25 25 25 25 25 26 26 26 26 26 26 26 26 26 26 26 25 25 25 25 24 24 24 23 23 23 22 22 22 22 22 22 23 23 23 23 23 23 23 22 22 21
33 32 31 31 30 30 30 29 29 29 29 28 28 28 28 28 28 28 28 28 28 28 28 28 29 29 29 29 29 29 29 29 29 29 28 28 28 28 28 28 27 26 25 25 25 25 25 26 26 26 26 26 26 26 26 26 26 26 26 26 26 26 26 25 24 24 23 23 23 22 22 22 22 22 22 22 22 23 23 23 23 23 23 23 22
33 32 31 31 30 30 30 29 29 29 29 28 28 28 28 28 28 28 28 28 28 28 28 28 28 28 28 28 29 29 29 29 29 29 29 29 29 28 28 28 28 27 26 25 26 26 26 26 26 26 26 26 26 26 26 26 26 26 26 26 26 26 25 25 24 24 23 23 23 22 22 22 22 22 22 22 22 22 22 22 22 22 22 22 23
32 32 31 31 30 30 30 29 29 29 29 28 28 28 28 28 28 28 28 28 27 27 27 27 27 28 28 28 28 29 29 28 28 28 28 28 28 28 28 28 28 26 25 25 25 25 25 25 25 25 25 25 25 25 25 25 26 26 26 26 26 26 25 24 23 23 23 23 23 23 22 22 22 22 22 22 22 22 22 22 22 22 22 22 22
32 31 30 30 30 30 30 29 29 29 29 29 28 28 28 28 28 28 28 27 27 27 27 27 27 27 28 28 28 29 28 27 27 27 26 26 26 26 26 26 26 25 24 24 24 24 24 24 24 24 24 24 24 24 24 24 24 24 25 25 25 25 24 23 23 22 22 22 23 23 23 23 22 22 22 22 22 21 21 21 21 22 22 22 22
31 30 30 30 30 30 29 29 29 29 29 29 28 28 28 28 28 27 27 27 27 27 27 27 27 27 27 28 28 27 26 25 25 25 25 25 25 25 25 25 24 24 23 24 24 24 24 24 24 24 24 24 23 23 23 24 24 24 23 23 23 22 22 22 21 21 21 22 22 22 23 23 23 22 22 21 21 21 21 21 21 21 21 21 21
30 29 29 29 29 29 29 29 29 29 29 29 28 28 28 28 28 28 27 27 27 27 27 27 27 27 28 28 27 25 24 24 24 24 25 25 25 25 25 25 25 24 24 24 24 24 24 24 24 24 23 23 23 23 23 23 23 22 22 22 22 22 21 21 21 21 21 22 22 22 23 23 22 22 21 21 21 21 21 20 20 20 20 20 20
29 29 29 29 29 30 29 29 29 28 28 28 27 27 28 28 28 27 27 27 27 27 27 27 27 27 27 26 24 23 23 23 24 24 24 24 24 24 25 24 24 24 23 23 23 23 24 24 24 24 23 23 23 23 23 22 22 21 21 21 21 21 20 20 20 20 21 21 22 22 22 22 21 21 20 20 20 20 20 19 19 19 19 19 19
29 29 29 30 30 30 30 29 28 27 26 26 25 25 26 27 27 26 27 27 27 27 27 27 26 26 25 24 23 23 22 22 23 23 24 24 24 24 24 24 23 22 21 21 21 21 21 21 21 21 21 21 20 20 20 20 20 20 21 21 21 20 20 20 19 19 20 20 21 21 21 21 20 20 19 19 19 19 19 19 19 19 19 19 19
29 29 29 29 29 30 29 27 27 26 26 25 24 23 24 25 26 26 26 27 27 27 27 26 26 26 25 23 23 23 22 22 22 23 23 23 23 23 22 22 22 21 20 20 20 19 18 18 18 17 17 17 17 17 17 18 18 18 19 19 20 20 20 20 20 20 20 20 20 21 21 20 20 19 19 18 18 18 19 19 19 19 18 18 18
27 28 28 28 29 28 26 25 25 25 24 24 24 23 22 22 23 24 24 25 26 26 25 25 25 25 25 23 22 22 22 22 22 22 22 22 21 21 21 21 20 20 20 19 19 17 16 16 16 16 16 15 15 16 16 16 16 17 17 18 18 19 19 20 20 20 19 19 20 20 20 20 19 18 18 18 18 18 18 18 19 18 18 18 18
26 25 26 26 26 26 24 23 23 23 23 23 24 23 21 20 20 21 22 23 24 24 24 24 23 23 23 23 22 22 21 21 21 21 21 21 20 20 20 20 19 19 19 18 18 17 16 16 16 15 15 15 15 15 15 16 16 16 16 16 17 17 18 18 19 19 19 19 19 19 20 20 19 18 18 18 18 18 18 18 18 18 18 18 18
25 24 25 25 25 24 24 23 23 22 22 22 22 22 21 19 18 18 19 21 22 22 22 22 22 22 22 22 22 22 21 21 21 21 21 21 20 19 19 19 19 19 18 18 18 17 17 16 16 16 16 16 16 16 16 16 16 16 16 16 16 16 16 17 17 17 18 18 19 19 19 19 19 18 17 17 18 18 17 17 17 17 17 17 17
24 24 24 25 24 24 24 23 23 22 22 22 22 22 21 20 19 18 18 19 19 20 20 21 21 21 21 21 21 22 21 21 22 22 22 21 21 19 19 19 18 18 18 18 17 17 16 16 16 16 16 16 16 16 16 16 16 16 16 15 15 15 16 16 16 16 16 17 18 18 19 19 19 18 17 17 17 17 17 17 17 17 17 17 17
24 24 24 24 24 24 24 24 23 23 23 23 22 22 21 21 21 20 20 19 19 19 19 20 21 21 21 21 21 21 21 21 21 22 21 21 21 20 20 19 18 18 18 17 17 16 16 16 16 16 16 16 16 16 16 16 16 16 16 15 15 15 15 15 15 15 15 16 17 17 18 18 18 18 18 17 17 17 17 17 17 17 17 16 16
23 23 23 23 24 24 24 24 24 24 23 23 23 22 22 22 22 22 21 21 20 19 19 20 21 21 21 21 21 21 20 20 20 21 21 20 20 20 20 18 17 17 17 17 16 16 16 16 16 16 16 16 16 16 16 16 16 16 16 15 15 15 15 15 15 15 15 15 16 16 17 17 18 18 18 17 17 17 17 17 16 17 16 16 16
23 23 23 23 23 23 24 24 24 23 23 23 23 23 23 23 22 22 22 21 20 20 20 20 21 21 21 21 20 20 19 19 19 20 19 19 19 19 18 17 17 17 17 16 16 16 16 16 16 16 16 16 16 16 16 16 16 16 16 16 15 15 16 16 16 15 15 15 15 16 16 17 17 18 18 18 17 17 16 16 16 16 16 16 16
23 23 23 23 23 23 23 24 24 23 23 23 23 23 22 22 22 22 22 22 21 21 20 20 20 20 20 20 20 20 19 19 19 18 18 18 18 17 17 17 17 17 16 16 16 16 16 16 15 15 16 16 16 16 16 16 16 16 16 16 16 16 16 16 16 16 16 15 15 15 16 17 16 16 17 17 16 16 15 15 15 15 15 15 15
23 23 23 23 23 23 23 23 23 23 23 23 22 22 22 22 22 22 22 22 21 21 20 20 20 20 20 19 20 20 19 19 18 18 17 17 17 17 17 17 17 16 16 16 16 15 15 15 15 16 16 16 16 16 16 16 16 16 16 16 16 16 16 16 16 16 16 16 15 15 16 16 16 16 15 15 15 15 15 15 15 15 15 15 15
23 23 23 23 23 23 23 23 23 23 23 23 22 22 22 22 22 22 22 22 21 21 20 20 20 20 19 19 19 19 19 18 18 17 17 17 17 17 17 17 16 16 16 16 16 15 15 15 15 16 16 16 17 17 17 17 16 16 15 15 15 15 15 15 16 17 17 17 16 16 16 16 16 16 16 16 15 16 16 15 15 16 16 15 15
23 23 23 23 23 23 23 23 23 23 23 22 22 22 22 22 22 22 22 22 22 21 20 20 19 19 19 19 19 19 18 18 18 17 17 17 17 17 17 17 16 16 16 16 16 16 15 15 16 16 16 16 17 17 17 17 16 16 16 16 15 15 15 15 15 17 17 17 17 17 17 17 17 17 16 16 17 17 16 15 15 16 16 16 16
22 22 22 22 22 22 22 21 21 21 21 21 21 21 21 21 21 21 21 21 21 20 20 20 20 19 19 19 19 19 18 18 18 18 17 17 17 17 17 17 17 16 16 16 16 16 16 16 16 16 17 17 17 17 17 17 16 16 16 16 16 16 15 15 14 15 16 16 15 16 16 17 18 17 17 17 16 16 15 15 16 16 16 16 16
21 21 21 20 20 20 19 19 19 19 19 18 18 18 19 19 19 19 19 19 19 19 19 19 18 18 18 18 18 18 18 18 18 18 17 17 17 17 17 17 17 17 16 16 16 16 16 16 16 17 17 17 17 17 17 17 17 17 17 17 17 16 16 16 15 15 15 15 15 15 16 16 16 16 16 16 16 16 16 16 16 16 16 16 16
20 20 19 19 18 18 18 18 18 17 17 17 16 16 16 16 16 16 16 16 16 16 16 16 16 17 17 17 18 18 18 18 18 18 17 17 17 17 17 17 17 17 17 17 17 17 17 17 16 17 17 17 17 17 17 17 17 17 17 17 17 17 17 16 16 16 17 17 17 16 16 16 16 16 16 15 16 16 16 16 16 16 16 16 16
19 19 19 18 18 17 17 17 16 16 16 15 15 15 14 14 14 14 14 14 14 14 14 14 14 15 15 16 16 16 17 17 17 17 17 17 17 16 17 17 17 17 17 17 17 17 17 17 17 17 17 17 17 17 17 17 17 17 17 17 17 17 16 16 16 16 17 17 17 16 16 16 16 16 16 16 16 16 16 16 16 16 16 16 16
19 18 18 17 17 17 16 16 15 15 15 14 14 13 13 13 13 13 12 13 13 13 13 13 13 13 13 14 14 14 15 15 15 16 16 15 15 16 16 17 17 17 17 17 17 17 17 17 17 17 17 17 17 17 17 17 17 17 17 17 16 16 16 16 16 16 16 16 16 16 16 16 16 16 16 17 17 17 17 17 16 17 17 17 17
18 18 17 17 17 16 15 15 14 14 13 13 13 12 12 12 12 12 12 12 11 11 11 11 11 11 11 12 12 12 13 13 13 13 14 14 14 14 15 16 17 17 17 17 17 17 17 17 17 17 17 17 18 17 17 17 17 17 17 17 17 17 17 17 17 17 17 17 17 17 17 17 17 17 17 17 17 17 17 17 17 17 18 18 18
16 16 16 16 16 15 15 15 14 13 12 12 12 11 11 11 11 11 11 11 10 10 10 10 10 10 10 10 11 11 11 11 11 12 12 13 13 13 14 15 16 16 16 16 16 16 16 16 16 16 17 17 17 17 17 17 17 17 17 17 17 17 17 17 17 17 17 17 18 18 17 17 18 18 18 18 18 18 18 18 18 18 18 18 18
15 14 14 14 14 14 14 13 13 12 12 11 11 10 10 10 10 10 9 9 9 9 9 9 9 9 9 9 9 9 10 10 10 10 11 11 12 12 13 14 14 15 15 15 15 15 15 16 16 16 16 16 16 17 17 17 17 17 17 17 18 18 18 18 18 18 18 18 18 18 18 18 18 18 18 18 18 18 18 18 18 18 18 18 18
14 13 13 13 13 13 12 12 11 11 11 10 10 10 9 9 9 8 8 8 8 8 8 8 8 8 8 8 8 8 8 8 9 9 9 10 10 11 11 12 13 13 14 14 14 14 14 15 15 15 15 16 16 16 16 16 16 16 16 17 17 17 17 18 18 18 18 18 18 18 18 18 18 18 18 18 18 18 18 18 18 18 18 18 18
13 13 12 12 12 12 11 11 11 10 10 10 9 9 9 8 8 7 7 7 7 7 7 7 7 7 7 7 7 7 7 7 8 8 8 8 9 9 10 10 11 12 12 13 13 13 13 13 14 14 14 15 15 15 16 16 16 16 16 16 17 17 17 17 17 17 17 17 17 17 17 17 17 17 17 18 18 18 18 18 18 18 18 18 18
Height
754 758 761 763 765 767 770 772 775 778 781 784 785 787 789 791 792 795 797 799 801 803 804 806 808 810 811 813 814 816 817 819 820 822 824 825 826 827 828 829 830 831 832 833 834 835 836 837 838 839 841 842 843 844 845 846 847 847 848 848 848 849 850 850 851 850 850 851 851 850 850 850 850 851 851 852 852 852 853 853 854 854 854 854 855
749 753 756 759 761 763 766 769 772 775 778 780 782 784 786 788 790 792 794 796 798 799 801 803 805 807 808 810 811 813 814 816 817 819 820 822 823 825 826 827 828 829 830 831 831 832 834 835 836 837 839 840 841 842 843 844 845 845 845 846 846 847 847 848 848 848 848 848 849 849 848 848 848 848 849 849 849 850 850 851 851 852 852 852 852
745 750 753 756 758 760 763 765 768 771 774 776 778 780 782 784 787 789 790 792 794 796 798 800 801 803 805 807 808 809 811 813 814 816 817 818 820 821 823 824 825 826 827 828 829 830 831 832 833 835 837 838 838 840 841 842 842 843 843 843 843 844 845 845 845 845 845 845 845 846 846 846 846 846 846 846 847 847 847 848 848 849 849 850 850
742 746 750 753 756 759 761 763 766 768 770 771 773 776 779 781 783 785 787 789 791 793 795 797 798 800 802 803 805 806 808 809 811 812 813 815 816 818 820 821 822 823 824 825 826 827 829 829 830 832 834 835 835 836 837 839 839 839 840 840 840 841 842 842 842 842 842 842 842 842 843 843 843 843 844 844 844 844 845 845 846 846 846 847 847
738 742 745 749 753 756 758 761 763 765 767 768 770 773 775 778 780 782 784 786 787 789 791 793 795 797 798 799 801 802 804 805 807 808 810 812 813 815 816 818 819 819 821 822 823 824 825 826 827 829 830 831 832 833 833 834 835 836 836 836 837 837 838 838 838 839 839 838 838 839 839 840 840 840 841 841 842 842 842 842 843 843 843 844 844
734 738 741 745 748 751 754 756 759 761 764 766 768 770 772 774 776 778 780 782 784 786 787 789 791 793 794 795 797 798 800 801 803 804 806 808 810 811 813 814 815 816 817 818 819 820 821 822 824 825 826 827 827 828 829 829 830 831 831 832 832 833 833 834 834 835 835 835 835 836 836 836 836 837 837 838 838 838 839 840 840 840 840 840 840
730 733 737 740 743 746 748 751 754 757 760 762 765 767 769 771 772 774 776 778 780 782 784 786 787 788 790 791 793 795 796 798 800 801 803 805 806 808 809 810 812 813 814 814 815 816 817 818 819 820 821 821 822 823 824 825 826 826 826 827 827 828 828 829 830 831 831 831 832 832 832 833 833 833 834 835 836 836 836 836 836 836 837 837 837
725 729 732 735 738 740 743 746 749 752 756 759 762 764 765 767 769 771 773 774 776 778 780 781 783 784 786 788 789 791 793 794 796 798 799 801 802 804 805 806 807 808 810 810 811 812 813 814 814 815 816 816 816 817 818 819 820 821 821 822 823 823 823 824 826 827 827 827 827 828 829 830 830 830 831 832 832 831 830 831 831 831 833 833 834
720 724 727 730 733 736 740 743 745 748 752 754 757 759 761 764 766 767 769 770 772 774 776 778 779 781 783 784 786 788 789 790 792 793 795 796 798 799 800 801 802 804 805 806 807 808 809 809 809 809 810 811 811 812 813 814 815 815 816 817 818 818 819 820 822 822 823 823 823 824 825 825 825 826 827 826 825 824 825 827 827 827 829 830 830
714 718 721 725 729 733 736 739 742 745 747 749 752 755 757 760 762 764 765 766 768 770 772 774 776 777 779 781 782 783 784 785 787 788 790 791 793 794 796 797 798 799 800 801 803 803 804 804 804 805 805 806 807 808 809 810 810 810 810 811 813 814 816 817 818 818 819 819 819 820 821 819 819 821 821 820 820 821 822 823 823 824 826 827 827
708 712 715 719 724 728 731 735 738 741 743 745 747 750 753 755 757 759 761 762 764 766 768 770 771 773 775 776 778 779 780 781 782 783 785 786 788 790 791 792 793 794 796 797 798 798 799 800 801 801 802 803 803 804 804 805 806 806 807 808 809 810 811 812 813 814 815 814 814 815 814 813 813 814 815 815 816 817 817 817 819 820 822 822 822
704 707 711 715 719 722 726 729 733 736 738 741 743 745 748 750 752 755 756 758 760 762 764 765 767 769 771 772 773 774 775 776 777 779 781 782 784 786 787 788 789 790 791 792 793 794 795 796 797 798 798 799 799 799 800 801 801 802 803 804 805 805 806 806 807 807 808 808 809 808 807 806 807 808 809 810 811 811 812 813 814 815 816 817 818
700 703 707 711 714 718 722 725 728 731 733 736 739 741 744 746 747 749 751 753 756 757 759 761 763 765 766 767 768 769 769 771 773 775 777 778 781 782 783 785 785 786 788 788 789 791 792 793 793 794 794 794 794 795 795 796 797 798 798 799 799 800 801 801 800 800 800 801 801 800 799 801 802 801 801 804 806 807 808 809 810 811 812 812 812
696 699 703 706 709 714 718 720 723 726 728 732 735 737 739 740 742 744 747 749 752 753 755 757 759 760 761 762 763 764 765 766 768 770 772 774 777 778 780 781 782 783 784 785 786 787 787 788 788 788 789 790 789 790 791 791 792 793 793 793 793 794 796 795 794 794 795 795 794 792 792 795 794 794 797 800 801 802 803 804 805 806 806 807 808
692 695 698 702 705 709 713 716 719 722 725 729 731 733 735 736 738 741 743 745 747 748 751 753 754 755 757 758 759 760 761 762 763 765 767 770 773 775 777 778 779 780 781 782 783 783 783 784 784 784 784 784 784 785 785 786 787 787 787 787 787 788 789 788 787 788 789 788 787 786 787 788 789 789 793 795 796 797 798 799 800 802 803 805 806
688 691 694 697 701 704 707 711 715 718 721 725 727 729 731 732 735 737 739 741 743 745 747 748 750 751 753 755 755 755 756 757 759 760 763 766 769 772 774 775 776 777 777 778 779 779 779 780 779 779 779 778 779 779 780 782 782 781 781 781 782 783 781 778 779 781 782 782 782 782 782 783 784 785 788 790 791 793 796 797 798 800 801 802 803
684 687 690 693 696 700 703 707 710 713 717 720 722 724 726 728 731 733 736 738 740 741 742 743 745 747 749 750 750 751 752 753 755 757 759 763 766 769 771 772 772 772 772 774 775 774 774 774 774 774 773 773 774 775 777 778 778 777 776 776 777 778 773 771 773 776 776 776 777 777 778 779 781 782 784 785 787 790 792 792 792 793 795 796 797
681 683 685 689 692 696 700 703 706 709 712 714 716 719 722 725 727 730 732 734 735 737 738 740 742 743 744 745 746 747 748 750 752 754 757 761 764 766 767 768 768 767 768 770 771 770 769 769 769 770 769 769 771 772 774 775 774 773 773 773 774 771 765 765 770 772 771 772 773 774 775 776 777 777 779 780 782 784 784 783 784 786 788 788 789
678 680 683 686 690 693 696 699 702 705 708 710 713 716 719 722 724 727 729 731 732 734 736 737 739 740 741 742 743 745 747 749 751 753 755 759 761 762 764 764 763 763 765 766 766 765 764 764 765 766 765 766 768 769 770 771 770 769 769 771 770 762 756 761 767 766 766 768 768 769 769 769 770 771 772 773 776 777 776 776 778 780 780 781 784
676 678 681 684 687 690 693 696 699 701 704 707 710 713 716 719 722 724 726 728 730 732 734 735 736 737 738 740 741 743 745 747 749 751 754 757 758 759 760 759 758 760 761 762 761 760 760 761 761 762 763 763 764 765 765 765 764 764 765 765 759 752 753 760 763 761 762 763 762 762 762 762 764 764 765 766 767 768 769 771 772 772 773 775 778
674 677 679 681 685 687 690 693 696 698 702 705 708 711 714 716 719 721 723 726 727 729 731 732 733 734 736 737 739 741 743 745 747 749 751 753 754 755 755 754 755 757 758 758 757 756 756 757 757 758 759 759 759 760 760 760 759 759 758 755 751 749 754 757 756 756 758 757 755 756 755 756 757 758 757 757 758 759 761 763 764 765 767 769 771
672 674 676 679 682 685 688 691 694 697 700 703 706 709 711 714 717 719 721 723 725 726 728 729 731 732 734 735 737 738 741 743 745 747 748 749 750 750 750 750 752 754 754 753 752 751 752 753 753 753 754 754 754 754 755 755 754 753 750 748 747 749 751 750 749 750 750 748 748 748 747 747 748 748 748 748 748 750 753 755 758 759 760 762 764
669 672 674 677 680 683 686 688 692 695 698 700 703 706 709 712 714 716 719 721 722 724 725 727 729 731 732 734 735 737 739 741 742 743 744 744 745 745 745 746 748 749 748 748 747 747 748 749 749 749 750 749 749 749 749 749 748 746 744 744 744 744 745 744 743 742 741 740 740 738 736 736 736 736 737 738 740 743 746 748 751 753 755 757 759
667 669 672 674 677 680 683 686 690 693 695 698 701 704 707 709 712 714 716 718 720 721 723 725 727 729 731 733 734 736 738 738 739 739 739 739 740 741 741 743 744 744 744 744 744 745 746 746 746 746 746 746 746 746 745 744 742 740 739 739 738 738 739 737 735 735 734 734 732 729 726 725 726 726 727 730 734 738 741 743 745 747 749 752 755
664 667 669 672 675 678 681 684 687 690 693 696 698 701 704 707 709 711 713 715 717 719 721 723 725 727 729 731 733 735 736 735 735 736 736 736 737 738 739 740 741 742 742 742 743 743 743 743 743 743 743 743 743 742 740 739 738 736 735 734 733 733 732 730 728 729 728 726 723 720 718 717 716 717 719 724 728 732 734 737 740 743 746 749 751
662 665 668 670 673 676 679 682 685 688 691 694 696 699 702 704 707 709 711 713 715 717 719 721 723 725 727 729 731 733 733 733 733 734 735 735 736 737 738 739 740 740 741 741 742 741 741 741 740 740 740 739 738 737 735 733 733 731 730 729 728 727 726 724 722 722 721 718 714 711 709 708 708 709 712 716 718 719 722 726 731 735 740 744 747
662 664 667 669 672 675 677 681 684 687 690 693 695 697 700 702 705 706 708 710 713 715 717 719 721 722 724 726 728 730 730 732 733 734 734 735 736 737 737 738 739 739 739 739 739 739 738 738 737 736 735 734 733 732 730 728 727 725 724 723 721 719 719 718 716 714 712 709 705 702 700 701 702 704 707 708 708 709 712 717 724 730 734 737 741
662 664 666 669 672 674 677 680 683 686 689 691 694 696 698 700 702 704 706 708 710 713 715 717 719 720 722 724 726 728 730 731 732 733 734 735 735 736 736 737 737 737 737 737 736 736 736 735 734 734 732 730 729 727 725 723 721 720 718 717 715 713 712 712 710 708 704 702 698 695 694 695 696 698 701 703 703 706 709 714 720 725 728 731 735
662 664 666 669 671 674 676 679 681 684 687 690 692 695 697 699 701 703 705 707 709 712 714 715 717 718 720 722 724 726 729 731 731 733 733 734 735 735 735 735 735 735 735 734 734 734 733 732 732 731 730 728 726 724 722 720 717 715 713 711 709 707 705 704 701 698 696 695 693 690 688 688 688 689 692 694 696 700 705 708 713 719 724 726 729
663 665 666 668 671 673 675 678 679 682 685 688 692 695 698 700 702 703 705 707 709 711 713 715 717 717 719 723 725 726 728 730 731 732 732 733 734 734 734 734 734 733 733 732 732 732 731 731 730 729 728 728 726 723 721 719 716 713 710 708 706 703 699 696 693 689 688 687 685 683 681 680 679 680 682 684 687 692 695 698 703 710 716 720 723
663 665 666 668 670 672 674 677 679 682 685 687 691 695 700 703 705 706 707 708 710 711 714 716 718 719 719 722 725 727 728 729 730 731 732 732 732 732 733 733 732 732 732 731 731 730 730 730 729 728 727 726 724 722 721 718 715 711 708 704 702 699 696 691 687 685 684 681 679 676 674 673 671 670 671 672 674 679 684 689 694 700 705 710 714
664 666 667 668 670 672 674 677 679 683 686 688 691 694 699 704 708 710 711 712 712 714 716 718 720 721 721 723 724 726 728 729 730 731 731 732 732 732 732 732 732 732 731 730 730 730 730 729 728 727 726 724 722 720 718 715 712 709 706 701 696 693 690 686 683 681 678 674 671 669 667 665 663 661 661 661 660 663 669 676 682 688 695 701 708
667 668 669 670 672 674 676 678 681 684 686 689 693 695 698 702 707 711 713 715 716 718 719 721 721 722 723 724 725 726 728 729 730 731 731 732 732 732 732 732 731 731 730 730 729 729 729 728 727 726 725 723 720 718 716 712 709 705 702 697 692 687 683 680 679 677 673 668 664 660 657 656 654 653 654 655 654 655 657 662 669 677 684 691 699
669 671 671 672 674 677 679 681 684 686 689 691 694 697 700 703 706 709 713 715 718 720 721 723 723 723 724 725 726 727 728 728 729 730 730 731 731 731 730 730 730 731 731 730 730 730 730 728 727 725 723 721 719 717 713 710 706 701 697 693 687 681 678 675 674 672 668 664 659 654 650 648 645 644 644 645 645 645 645 649 657 665 673 681 690
672 674 675 675 677 679 681 684 686 689 691 694 696 699 703 705 707 710 712 714 717 719 721 723 724 724 725 725 726 726 727 728 728 729 729 728 729 729 729 729 730 731 731 731 730 730 730 729 727 725 722 720 718 715 711 708 704 700 695 689 684 679 675 672 669 665 660 657 652 646 642 639 637 636 637 637 637 636 636 640 648 656 665 675 684
675 676 678 679 680 682 684 686 688 690 693 695 698 701 704 706 708 711 713 715 717 719 721 723 724 724 725 725 726 727 727 727 727 727 727 728 728 728 728 729 730 731 731 730 730 729 729 728 726 723 721 719 717 713 710 707 703 699 695 689 684 679 674 669 664 658 653 648 641 636 633 631 630 631 634 634 633 631 629 632 640 652 663 674 682
678 679 681 683 684 684 686 689 691 693 695 697 699 702 704 707 709 712 714 716 718 720 721 723 724 724 725 725 726 726 726 726 726 727 728 729 729 729 730 730 730 730 730 729 729 728 727 726 724 722 720 718 715 712 709 706 703 699 695 691 686 681 675 668 661 655 649 640 630 625 625 626 626 627 628 629 633 636 635 635 640 650 664 676 684
681 682 684 686 686 687 689 691 693 695 697 699 701 703 705 708 711 713 715 717 719 720 722 723 724 724 724 725 725 726 726 727 728 730 731 731 731 731 731 731 730 730 730 729 729 728 726 725 723 721 719 717 714 711 709 706 703 700 696 692 688 684 679 672 663 655 647 635 623 619 620 623 626 627 625 626 634 642 644 645 650 659 671 682 688
684 685 687 688 688 690 691 693 695 697 699 701 703 705 708 711 713 715 717 718 720 721 722 723 723 724 724 725 726 727 729 730 731 731 732 732 732 732 731 731 730 730 729 729 728 727 726 725 722 720 718 716 714 711 709 706 703 700 697 693 690 687 683 677 668 659 650 640 632 628 627 628 631 633 632 635 644 650 650 654 664 674 684 691 695
686 687 688 689 690 692 693 695 697 699 701 703 706 708 711 713 715 717 718 719 719 720 721 722 723 725 726 727 728 729 730 731 732 732 733 733 732 731 731 730 730 730 729 728 727 726 726 724 722 720 718 716 714 712 709 706 703 700 698 695 693 690 686 681 674 667 659 652 645 641 640 641 643 644 644 649 657 664 667 673 681 688 694 700 702
688 689 691 691 693 694 696 698 700 702 704 706 708 710 713 715 716 717 718 718 719 720 722 724 725 727 728 729 730 731 731 732 733 733 732 732 731 731 730 730 730 729 728 728 727 726 725 724 722 720 718 716 714 712 710 707 704 702 699 697 696 693 690 685 679 674 669 663 657 651 650 652 653 654 658 663 670 677 684 690 694 697 702 706 709
691 692 694 695 697 698 700 702 704 705 707 708 710 712 714 715 716 717 718 719 720 722 724 726 727 729 730 730 731 732 733 733 733 732 731 731 731 731 730 730 729 729 728 728 727 727 726 724 722 720 718 717 715 713 711 709 706 704 702 699 697 695 692 689 685 680 676 673 669 665 662 661 661 663 667 673 680 686 691 695 699 703 707 711 714
694 695 697 698 700 702 703 705 707 708 710 711 712 714 715 716 718 719 720 721 723 724 726 728 730 731 732 732 733 733 733 732 731 731 730 731 732 731 731 730 729 728 728 728 728 728 726 724 723 721 719 718 717 715 713 711 709 707 705 702 700 698 696 693 690 687 683 680 678 677 674 673 673 674 676 680 684 689 694 698 702 707 711 715 719
697 699 700 702 704 705 707 708 710 712 713 714 715 717 718 718 720 721 722 724 726 727 728 730 732 732 733 733 733 733 733 731 731 731 732 733 733 733 732 731 729 728 728 728 728 729 728 726 723 721 719 719 718 717 715 713 711 709 707 705 702 701 699 696 695 693 691 688 686 684 684 683 683 684 686 688 690 694 698 702 706 710 713 717 721
700 702 704 705 707 709 710 712 713 715 716 717 718 720 721 721 723 724 726 727 729 730 731 733 733 734 733 733 732 732 732 732 733 733 734 735 735 733 732 730 729 728 728 728 729 729 728 726 724 722 720 720 719 718 716 715 713 711 709 707 705 703 702 701 699 698 696 694 693 692 691 691 691 692 693 695 697 700 703 706 709 712 715 718 721
703 705 707 708 711 712 714 716 717 718 719 721 722 723 725 726 727 728 730 731 732 733 734 735 735 734 734 733 733 733 733 734 734 735 736 736 735 733 732 730 729 728 729 729 729 730 729 727 725 723 721 720 719 719 718 716 715 713 712 710 709 707 706 705 703 701 700 699 699 698 698 698 698 699 700 702 704 706 708 710 712 715 717 719 720
707 708 710 712 714 716 718 719 720 721 723 725 726 728 729 731 731 733 734 734 735 735 735 735 736 735 735 736 736 736 736 737 737 737 737 736 735 734 732 730 729 729 729 730 730 730 729 728 726 723 722 721 720 720 719 718 717 716 714 712 711 710 709 708 706 705 704 703 703 703 703 703 704 704 705 706 708 708 710 712 714 716 717 719 720
711 712 714 715 717 719 721 723 724 726 728 729 731 732 734 735 735 736 737 737 737 737 737 738 738 738 738 739 739 739 739 739 738 738 737 736 736 735 733 731 730 730 730 730 731 730 729 728 726 724 723 722 721 720 720 720 719 718 717 715 714 712 711 710 709 708 708 708 707 707 707 707 708 708 708 709 710 710 711 713 715 716 718 719 721
716 718 719 720 722 724 726 727 729 731 732 734 735 736 737 738 739 739 740 740 740 740 741 741 742 742 742 742 742 741 741 740 739 739 738 737 737 736 734 732 731 731 731 731 731 730 730 728 726 724 723 722 721 721 721 721 721 720 719 718 717 716 714 713 712 711 711 711 711 711 711 711 711 711 711 712 712 712 713 715 716 717 718 720 721
722 723 724 725 727 729 730 732 734 735 736 737 738 739 740 741 741 742 742 742 743 743 744 745 745 745 746 745 745 744 743 742 741 740 740 739 738 737 735 734 733 732 732 732 732 731 730 729 727 726 725 723 723 722 722 722 722 721 721 720 719 718 717 716 715 714 714 713 713 713 713 713 713 713 713 714 714 714 715 716 717 718 719 720 721
726 727 729 730 732 733 735 736 738 739 740 741 741 742 743 744 744 745 745 745 746 746 747 748 748 748 748 748 748 747 745 744 743 742 742 742 740 739 737 736 735 734 734 733 732 731 731 730 729 728 727 725 724 724 724 723 723 723 722 722 721 720 719 718 717 717 716 716 715 715 714 714 714 714 714 715 715 715 716 716 717 718 719 720 721
Wind_Speed
39 39 40 40 39 40 41 41 39 38 37 37 36 36 34 33 33 33 33 33 32 32 33 33 33 33 33 33 33 32 32 31 31 31 31 30 30 30 29 29 29 28 27 27 26 26 25 24 24 24 23 23 24 23 20 18 18 17 17 17 18 16 15 15 13 12 15 13 8 9 14 19 24 24 21 19 18 18 18 17 17 17 17 18 18
41 41 41 41 41 41 41 42 40 38 38 38 37 37 36 35 34 33 34 34 34 33 33 34 34 34 34 33 33 33 33 33 32 32 32 32 31 31 30 30 31 30 28 28 29 29 27 26 25 25 24 24 24 24 23 21 20 20 20 20 20 20 19 19 17 14 16 19 14 9 13 19 21 22 21 19 18 19 19 19 18 18 18 18 18
42 41 40 40 42 42 41 41 41 40 39 39 39 39 38 37 35 35 35 35 35 35 34 33 34 35 36 34 34 34 34 34 33 33 33 33 33 32 31 31 31 32 31 30 30 30 29 28 27 27 26 26 26 25 25 25 23 22 23 23 23 22 22 21 21 19 18 21 20 16 16 19 19 20 20 19 19 20 21 20 19 18 17 16 17
41 41 40 40 40 39 39 39 40 40 40 40 40 39 38 38 37 36 36 35 35 36 36 34 34 34 36 36 35 35 35 35 35 34 34 34 34 34 33 32 32 32 33 32 31 31 31 30 30 29 28 29 29 28 28 28 27 25 25 25 25 25 25 24 24 24 21 21 23 22 20 19 19 19 19 19 20 21 21 21 20 19 18 17 15
41 41 41 40 39 39 39 38 39 40 40 39 39 39 38 38 38 38 37 36 35 36 36 36 35 35 36 37 37 37 36 36 36 36 36 36 36 35 34 33 33 32 33 33 33 32 32 32 32 31 30 31 31 31 31 31 31 29 28 28 28 28 28 27 27 27 25 24 24 24 22 21 22 21 20 20 21 21 21 21 20 20 19 18 17
39 41 41 40 40 40 40 40 39 40 41 39 38 38 37 37 38 39 38 37 36 36 36 37 37 37 37 37 38 39 38 37 37 37 37 37 36 36 35 35 34 34 33 34 34 34 34 34 33 32 32 33 33 33 33 33 33 33 32 31 31 31 31 31 30 29 29 28 27 25 24 23 24 24 23 23 23 23 23 22 22 21 20 20 20
39 40 40 40 40 41 42 42 41 41 41 40 39 38 38 37 37 39 39 38 37 36 36 37 38 39 40 39 38 39 39 38 38 38 38 37 37 37 36 36 35 35 35 35 35 36 36 36 35 35 35 35 36 36 35 35 35 35 36 34 33 33 33 33 32 31 31 30 28 27 27 26 25 25 24 24 24 25 25 25 25 25 24 24 25
38 39 40 40 41 42 43 44 43 42 42 41 40 39 39 39 38 38 39 39 38 37 36 38 39 39 40 40 40 39 38 39 38 38 38 38 37 38 37 37 36 36 36 36 36 36 37 37 37 38 38 38 39 38 38 37 37 37 38 37 35 34 35 34 32 32 31 30 29 29 28 27 26 24 23 24 26 28 29 29 28 28 28 27 27
38 38 39 40 41 42 42 42 43 42 41 41 41 40 39 39 39 38 38 39 40 39 37 37 38 39 39 39 40 39 38 39 39 40 39 39 38 39 39 38 37 37 36 36 36 36 37 38 39 40 40 41 41 41 40 40 39 39 40 40 38 36 35 34 32 31 30 28 28 27 26 27 27 26 24 27 30 31 31 30 29 29 28 27 28
38 38 38 40 41 42 41 41 41 41 41 41 42 41 40 39 39 39 38 39 40 40 39 37 37 38 38 38 39 39 39 40 41 42 42 41 40 39 38 39 39 38 37 37 37 37 38 39 39 40 41 42 42 42 43 42 42 42 41 41 41 38 35 33 32 32 30 27 27 27 25 26 29 30 29 31 32 31 30 29 30 28 25 23 24
39 39 39 40 41 41 41 41 40 41 41 41 42 42 41 39 39 39 39 39 39 39 39 39 37 37 38 39 39 39 40 41 42 43 44 44 43 40 39 39 39 39 38 37 37 38 38 39 39 39 40 42 43 44 44 44 44 44 43 42 42 41 39 36 34 34 32 29 29 28 27 28 31 33 33 33 32 32 31 31 30 27 23 20 19
38 39 38 39 40 41 41 41 41 41 41 41 42 43 42 40 39 39 39 39 38 38 39 40 39 37 38 40 40 40 41 42 43 44 45 45 44 42 40 39 38 39 39 38 38 38 37 38 38 38 39 40 42 44 45 46 46 46 46 45 45 44 43 42 40 38 36 34 31 31 32 32 32 34 35 34 34 34 33 32 31 30 27 24 21
36 38 38 39 40 40 41 41 40 41 42 42 42 41 41 41 40 40 40 39 39 38 39 39 39 38 37 38 40 42 42 43 44 44 45 46 46 45 42 40 38 39 39 39 39 38 37 37 37 38 38 39 41 43 45 47 48 48 48 48 48 48 47 47 46 44 43 40 37 37 39 37 34 37 39 38 36 34 32 31 32 31 29 28 29
33 36 38 39 40 40 40 40 40 41 42 42 41 40 40 41 41 40 39 38 38 38 38 38 39 40 39 38 40 42 42 43 44 45 46 46 46 46 45 42 39 38 39 39 39 39 38 38 38 38 38 39 41 42 43 45 47 49 50 51 51 50 49 50 51 49 47 45 43 43 44 42 41 42 41 39 37 36 34 33 33 33 32 32 33
31 35 37 38 39 40 40 39 39 40 40 40 39 39 40 40 40 39 38 38 39 39 38 38 39 40 40 39 38 39 42 44 44 45 46 46 46 46 46 44 40 38 38 39 39 39 40 40 40 40 40 40 41 42 43 44 45 46 49 50 51 51 51 53 54 53 51 50 49 48 47 46 45 44 41 39 40 39 38 37 36 35 33 30 29
30 33 36 37 38 40 40 39 39 38 38 38 38 38 38 39 39 39 37 37 37 38 38 38 38 39 40 40 38 38 40 42 44 46 46 45 45 46 46 45 42 40 39 39 39 40 40 41 42 42 42 43 43 43 44 43 43 45 46 47 48 49 51 55 57 56 55 54 53 51 49 47 46 45 42 40 40 40 37 35 34 33 29 25 24
29 32 35 37 38 39 40 39 38 37 37 37 38 38 39 38 38 38 37 35 35 36 38 39 38 38 38 39 40 39 38 39 41 44 45 44 44 45 45 44 43 42 41 39 38 39 40 42 42 42 43 44 44 44 44 43 43 43 43 44 44 45 50 55 54 55 57 57 56 54 51 48 46 44 43 42 41 40 36 33 33 33 29 22 20
28 30 34 36 37 38 39 39 38 37 37 37 38 38 38 37 36 36 36 36 35 36 36 36 37 38 38 39 40 39 38 37 36 37 39 41 43 44 44 43 43 43 41 39 39 40 41 42 42 42 43 44 43 42 42 42 43 43 41 40 38 42 50 51 46 48 53 56 56 55 52 49 47 45 44 44 43 41 40 38 36 35 31 25 22
27 28 32 35 36 37 38 38 38 37 37 37 37 36 36 36 35 34 35 35 34 33 33 33 34 35 37 38 38 37 35 34 33 32 32 34 38 42 43 41 41 41 40 38 39 40 41 41 40 41 43 43 42 42 41 42 44 44 42 37 36 44 50 46 42 44 46 48 52 54 53 52 50 47 46 45 45 45 45 43 40 37 34 30 28
26 26 29 33 35 36 37 38 37 37 36 35 34 33 33 33 32 32 32 33 32 31 30 30 31 33 34 34 34 34 33 31 30 29 27 27 31 37 41 42 40 39 37 37 38 39 40 40 39 40 40 40 40 41 41 43 45 46 43 39 41 48 47 40 40 44 43 42 47 51 53 53 50 48 46 46 47 48 48 46 43 42 38 34 32
25 26 27 31 33 34 35 36 36 35 34 33 31 30 31 31 31 31 31 30 30 31 30 28 27 28 30 31 31 31 30 28 27 26 25 25 27 31 37 41 40 37 35 36 37 37 38 38 38 39 39 40 40 40 40 42 44 45 46 46 49 51 45 38 40 43 43 43 45 46 48 49 48 47 47 47 49 50 50 48 46 45 43 39 35
26 26 27 30 31 32 32 33 33 32 31 30 29 28 29 30 30 30 29 28 28 28 29 28 26 23 23 26 28 28 28 27 26 25 25 27 28 30 34 37 38 36 35 35 37 37 37 37 38 38 39 40 41 41 41 43 44 46 50 52 53 52 48 44 42 40 41 44 43 42 44 45 45 47 48 48 49 50 50 48 47 46 46 46 42
27 27 28 29 30 30 30 31 31 30 29 29 28 27 27 28 28 28 28 27 26 26 27 27 26 22 19 19 20 23 24 25 26 27 28 29 30 32 34 34 35 36 36 36 37 38 38 38 38 38 38 39 40 42 43 43 45 47 50 52 53 53 52 49 45 41 41 42 41 41 43 44 45 47 48 49 49 48 48 48 48 47 46 46 45
28 28 28 29 30 30 29 28 29 28 28 28 27 26 26 26 27 27 27 27 26 24 24 24 23 21 19 16 14 13 15 16 19 23 26 28 30 32 34 35 36 36 35 35 34 32 30 30 30 30 30 32 34 37 40 43 46 49 51 52 53 54 53 51 47 43 41 39 40 42 43 45 45 46 48 50 48 47 47 46 47 48 46 45 43
28 28 28 29 29 29 28 27 28 27 27 27 27 26 26 25 25 25 26 26 25 22 21 21 21 20 18 17 14 10 8 8 9 9 11 14 17 20 24 26 28 29 30 31 31 30 29 29 29 28 27 28 29 31 35 39 42 45 48 51 52 53 52 50 47 42 38 38 40 43 44 46 47 48 49 49 47 46 46 44 42 43 42 41 41
27 26 26 27 28 28 27 26 26 26 25 26 26 26 26 25 24 24 24 24 23 21 20 20 20 19 18 17 15 10 8 9 9 7 5 4 3 4 6 8 10 13 16 19 22 26 29 32 33 34 35 36 37 38 40 42 43 45 47 48 49 50 49 48 45 41 39 40 43 44 47 49 49 49 48 47 46 48 48 45 41 38 38 38 38
24 23 24 24 25 26 25 23 24 24 24 24 25 25 26 25 24 23 23 22 21 20 20 20 20 19 18 17 14 12 14 14 12 10 7 6 5 3 1 1 4 6 8 11 14 17 21 25 28 30 33 36 38 40 42 44 45 46 47 47 47 48 48 47 47 45 44 45 46 48 50 50 46 43 43 43 45 49 50 45 39 36 38 39 36
21 21 22 22 22 23 24 23 23 22 20 19 20 20 22 24 23 20 20 21 21 20 19 17 17 17 17 16 18 18 16 14 12 10 7 6 4 3 3 4 5 7 9 11 14 17 20 22 25 27 29 32 35 37 39 40 40 40 41 41 42 44 45 45 46 47 47 47 47 47 47 45 41 38 39 42 43 44 43 42 40 39 40 38 33
20 20 21 21 21 21 21 22 23 22 20 18 15 12 14 18 19 16 14 16 19 20 18 15 15 17 19 20 20 19 17 15 13 10 8 6 4 3 4 5 6 7 8 10 13 14 16 18 20 22 25 28 31 33 34 36 36 37 37 38 39 40 40 41 42 45 48 48 47 46 44 41 39 39 40 42 42 41 42 45 45 42 39 37 32
18 18 19 20 19 18 19 22 25 25 23 23 21 19 16 16 17 16 13 13 15 17 17 17 19 21 22 21 18 17 17 15 13 11 9 8 6 6 6 7 8 9 10 11 12 13 14 16 18 20 21 23 25 27 29 30 32 33 34 35 35 36 38 40 41 44 46 45 46 47 45 40 38 36 36 37 37 39 45 50 48 43 39 37 33
14 13 15 16 16 18 22 25 26 26 27 28 29 29 28 26 24 24 21 19 18 19 20 20 20 20 20 20 19 18 16 15 13 12 11 10 9 9 9 11 13 14 15 16 17 17 17 18 20 22 22 22 23 25 27 28 30 31 32 34 34 35 36 38 39 40 42 43 44 46 45 42 38 36 37 39 41 43 47 48 46 43 42 39 35
17 16 17 18 19 23 27 28 28 29 29 30 32 34 33 31 28 28 28 26 24 24 23 22 22 20 19 19 19 18 16 14 13 12 11 11 12 11 12 14 16 17 19 19 20 20 20 19 21 23 23 23 25 26 27 28 30 30 31 32 34 34 35 37 38 38 39 41 43 43 43 42 40 38 39 43 44 45 45 45 44 43 42 39 35
22 21 22 24 24 25 27 27 27 28 28 28 29 30 31 29 26 27 29 30 28 26 25 23 23 23 21 19 17 17 15 13 12 11 10 11 13 14 14 15 16 17 19 20 20 21 21 21 22 22 22 23 25 27 28 29 30 31 31 32 34 37 39 40 40 39 40 41 42 43 44 44 41 38 38 41 42 44 45 45 44 42 40 37 34
24 23 25 27 26 25 24 24 25 25 26 27 26 26 27 28 28 27 26 26 25 25 24 23 21 20 19 18 16 14 12 10 10 9 8 10 12 14 15 16 16 16 18 18 18 19 20 21 21 22 22 23 24 26 28 29 30 31 32 33 36 38 40 39 38 38 39 40 41 42 42 42 41 38 38 41 43 44 46 46 45 43 40 37 35
25 24 25 27 27 25 25 25 25 25 24 25 26 26 25 26 26 24 22 21 21 22 23 22 20 18 17 16 14 12 11 10 10 9 9 10 11 13 15 16 16 16 16 16 16 17 17 18 19 20 22 23 24 25 26 28 29 30 32 34 36 38 39 37 36 37 38 39 40 41 42 41 39 35 33 37 40 41 43 43 42 41 39 38 36
25 25 24 25 26 27 27 27 27 27 26 26 27 27 26 25 24 24 23 22 22 22 21 20 19 18 17 15 13 13 12 11 12 12 12 12 12 12 15 16 14 14 15 15 16 17 17 17 18 20 20 21 23 24 24 25 27 28 30 33 34 33 31 30 31 35 38 39 40 41 40 40 38 31 27 29 34 37 40 43 44 42 39 37 36
25 25 24 24 26 28 29 29 29 29 30 29 29 28 27 26 25 24 23 23 22 21 19 17 16 18 18 15 14 14 13 12 13 13 13 12 12 13 14 13 12 12 14 15 16 18 18 18 18 19 20 20 21 22 22 24 25 26 28 30 28 24 20 20 21 22 25 30 37 41 37 35 36 34 27 23 24 26 30 35 39 39 38 37 35
24 25 25 26 27 28 29 29 29 29 29 29 28 28 27 25 24 22 21 21 22 21 18 15 15 17 17 15 14 14 12 11 12 12 12 11 12 12 12 11 12 12 13 14 15 16 17 18 18 18 18 19 19 20 21 22 23 23 24 25 24 22 21 22 25 27 31 33 25 15 3 8 9 14 13 14 16 22 29 33 34 35 35 35 33
24 24 24 25 26 27 26 26 26 26 26 26 27 27 25 23 21 19 18 19 21 20 18 17 17 17 16 15 14 13 12 11 11 12 11 10 10 11 11 11 12 13 13 13 15 16 16 16 16 16 17 17 17 18 19 20 21 22 23 22 23 24 23 24 27 30 37 44 40 31 36 44 36 26 30 35 29 27 33 38 38 35 33 31 31
23 23 24 25 26 26 26 26 25 25 25 26 26 25 23 21 19 17 16 16 18 20 19 19 18 16 15 14 12 11 12 12 11 11 10 9 9 10 10 11 12 12 13 13 14 15 15 15 15 15 15 15 16 16 18 19 19 21 23 23 24 25 25 24 27 31 33 38 43 43 43 46 46 45 46 45 41 39 38 36 35 34 31 29 29
24 25 26 27 28 28 27 26 24 23 24 24 24 23 22 20 19 18 16 15 16 20 20 19 17 15 14 14 12 10 10 11 11 10 9 8 9 9 10 10 11 12 13 13 13 13 14 14 14 15 15 15 16 16 17 18 18 20 22 23 24 27 27 25 25 28 30 31 35 42 43 43 44 45 44 42 40 37 33 30 29 29 28 26 26
24 24 24 25 26 26 26 26 26 26 25 24 23 21 21 20 19 18 17 17 18 20 20 18 15 13 12 12 11 10 10 11 11 12 11 9 9 9 9 10 10 11 12 13 12 12 13 14 14 15 15 15 17 18 18 18 19 20 21 22 23 26 28 28 25 25 28 29 30 34 38 40 40 40 39 37 34 31 29 27 26 25 24 24 23
28 28 28 28 27 27 27 27 29 29 28 28 27 26 26 25 24 24 24 24 22 20 18 15 14 13 12 10 10 11 12 12 13 13 13 11 9 8 8 9 10 10 11 11 11 11 13 13 14 14 15 15 16 17 17 17 18 18 19 21 23 24 26 27 26 26 27 29 29 29 31 33 34 34 33 32 32 30 27 25 24 23 21 21 21
30 30 30 30 30 30 30 30 29 28 28 28 29 28 28 28 27 26 26 25 25 24 22 20 19 19 20 17 13 11 12 12 13 13 12 11 10 8 7 7 8 9 10 9 9 9 11 12 13 14 14 14 14 15 15 15 15 16 16 17 19 21 23 23 24 24 24 25 25 26 26 27 28 29 28 27 26 26 24 22 21 20 19 20 20
30 29 29 29 30 30 30 29 29 28 28 28 28 27 27 28 28 27 25 24 23 23 22 21 21 21 22 22 21 18 16 16 15 14 13 13 13 12 10 8 8 9 9 9 8 8 10 11 12 12 12 12 12 13 14 14 14 14 15 15 17 18 18 17 18 18 19 19 20 21 23 24 24 24 23 22 22 21 20 18 18 18 20 22 22
30 29 29 29 29 29 28 28 28 28 27 26 26 25 26 26 26 26 25 23 22 22 21 22 22 22 22 22 23 22 20 19 18 17 16 16 17 16 14 11 10 9 9 9 9 9 10 12 13 12 12 12 12 12 13 14 14 13 13 12 13 14 14 13 13 14 15 16 16 16 18 19 20 21 21 19 17 16 16 16 17 19 21 23 24
30 29 28 28 28 28 28 28 28 28 27 26 25 24 24 24 24 24 23 23 22 23 23 24 24 24 23 22 21 21 20 19 19 18 18 18 18 17 16 13 12 11 11 10 10 10 11 12 12 12 12 13 13 14 14 15 16 15 14 13 12 12 13 13 11 10 11 13 13 12 13 13 14 15 16 13 12 15 18 20 20 20 21 21 22
31 31 30 30 29 28 27 26 26 26 25 24 23 23 22 21 21 21 21 22 22 23 24 25 25 24 24 23 22 21 21 20 20 20 19 19 19 19 18 16 14 12 12 12 11 11 11 12 12 12 13 13 14 15 15 15 15 16 16 15 14 14 16 17 16 13 12 12 12 10 10 9 9 9 10 11 13 18 21 20 19 19 18 17 16
32 32 32 31 30 28 27 26 26 25 23 22 22 22 21 21 21 21 22 23 23 23 22 23 24 25 25 24 24 23 22 22 22 22 21 20 20 20 20 19 16 14 14 15 15 15 15 14 13 12 13 13 14 14 15 15 15 15 15 14 13 12 13 15 17 16 15 14 13 11 10 10 10 10 13 15 16 18 18 16 16 16 16 15 14
32 31 30 30 30 29 28 27 26 24 23 22 21 21 21 21 21 21 22 23 24 23 22 21 22 24 24 25 25 24 23 23 22 22 22 21 21 20 20 19 18 17 16 16 17 17 17 16 14 12 12 13 13 14 14 14 13 13 13 12 11 11 10 11 12 13 13 13 14 13 12 12 12 12 12 12 12 12 12 13 13 13 12 13 13
31 31 31 30 30 29 28 27 26 25 24 23 22 22 22 22 22 22 22 22 22 22 21 20 20 21 22 23 23 24 24 24 24 24 24 23 23 22 21 20 19 19 18 17 17 17 17 17 15 14 13 12 12 12 12 12 12 11 10 9 9 10 10 9 10 10 10 11 12 12 12 11 11 11 10 7 6 6 8 9 9 9 9 8 10
Wind_Direction
200 202 203 204 204 205 205 205 205 205 205 206 207 208 207 205 205 205 205 205 205 208 209 209 208 208 210 211 211 211 210 211 212 212 212 215 216 216 215 213 213 215 217 218 218 219 221 222 223 224 224 227 231 232 233 235 237 236 234 231 226 223 224 221 220 235 242 243 249 242 225 213 210 214 220 225 228 228 231 236 240 242 243 246 251
200 203 203 204 205 205 205 205 204 205 205 206 207 208 207 207 205 204 204 205 205 205 207 208 209 208 209 211 212 211 211 210 211 211 211 213 215 216 216 214 214 215 217 218 218 218 220 223 224 224 224 227 231 232 232 233 237 238 234 233 231 227 226 225 224 229 237 238 238 226 209 208 212 217 221 226 228 224 224 228 232 239 245 250 255
201 203 204 205 206 206 205 204 204 204 204 205 207 207 207 207 205 204 204 205 205 206 206 207 209 209 209 209 210 211 211 211 211 211 212 213 214 215 216 216 216 216 217 219 219 218 218 222 225 224 223 224 228 231 231 230 234 237 235 234 234 232 229 229 227 227 231 235 235 227 215 213 218 222 223 226 229 225 224 227 230 236 243 249 253
200 202 204 206 207 207 206 205 204 204 204 205 206 206 207 206 206 206 206 205 206 207 208 209 209 209 210 210 210 210 211 212 212 212 214 214 214 215 216 217 218 219 219 220 220 219 218 220 224 224 222 222 225 228 228 228 230 233 234 233 234 235 233 231 230 230 231 234 235 232 229 225 223 223 221 221 224 226 226 227 230 234 239 243 245
199 201 204 205 206 207 207 206 206 205 205 206 206 206 206 206 207 207 207 206 206 207 208 209 210 210 210 211 211 210 211 213 213 214 215 216 217 217 217 217 219 221 222 222 221 220 220 221 224 224 221 220 223 225 226 226 226 228 231 232 232 234 233 231 231 231 230 233 235 233 231 231 230 229 226 219 219 223 227 230 231 232 235 237 237
199 201 203 204 205 206 207 206 206 207 207 207 207 206 206 206 207 207 207 207 207 208 208 208 210 211 212 213 213 213 213 213 214 215 215 216 218 219 219 219 220 222 224 224 223 222 222 223 224 223 221 221 222 223 224 224 224 225 227 230 230 229 229 229 229 229 228 231 234 234 230 229 230 231 229 224 220 220 223 227 231 233 234 232 231
199 201 203 204 205 206 206 206 206 207 207 208 208 207 206 206 207 207 208 207 207 208 209 209 210 212 214 214 214 215 215 215 215 216 216 216 217 218 219 220 221 222 224 226 226 225 224 225 225 224 223 223 224 225 224 224 223 224 225 227 228 225 224 225 225 225 226 227 229 231 231 230 229 229 229 227 225 225 224 224 226 229 231 232 233
199 201 202 204 206 206 207 207 207 207 207 208 208 208 207 207 208 208 208 208 208 209 209 210 211 213 215 216 216 216 216 216 216 216 217 217 217 218 220 221 221 222 224 226 228 227 226 226 226 226 226 226 226 227 226 224 223 224 224 225 226 224 221 221 220 221 222 223 225 227 229 229 230 230 228 222 220 224 227 226 228 230 230 232 236
197 199 201 203 206 207 207 207 207 207 206 207 208 208 209 208 209 209 209 209 210 210 211 212 212 213 214 216 217 217 216 217 217 217 217 217 217 218 219 221 222 222 223 226 228 229 228 228 228 228 228 228 229 229 229 228 226 225 225 224 223 222 221 219 218 218 219 221 223 224 225 226 227 225 222 217 218 223 226 225 228 233 233 234 237
196 198 200 202 205 206 207 207 206 206 205 206 207 208 208 208 209 210 210 211 211 212 212 213 213 214 214 215 216 217 217 218 219 219 219 218 218 218 218 220 222 223 223 225 226 228 229 230 230 230 230 231 231 232 232 232 231 230 230 227 223 221 219 218 217 217 218 219 221 220 221 224 225 222 222 222 222 225 224 221 223 228 229 231 237
195 197 198 200 202 204 205 206 206 205 205 205 206 206 207 208 208 210 210 211 211 212 212 213 214 214 215 216 216 217 219 220 220 221 222 221 220 218 219 220 222 223 224 224 226 228 229 230 232 232 232 232 232 233 234 234 234 235 235 233 230 226 221 219 218 218 218 220 222 220 220 224 225 223 223 225 224 224 223 220 220 220 217 218 228
196 197 198 198 200 201 203 204 204 205 205 205 206 206 206 207 208 209 210 210 210 211 211 212 213 214 215 216 217 218 220 222 222 223 223 223 223 221 221 222 222 224 225 225 227 228 229 230 232 232 233 233 233 233 234 235 236 236 236 236 236 233 229 225 223 220 219 220 222 222 222 224 225 223 223 223 223 223 223 221 219 219 216 216 222
196 197 197 197 198 200 201 202 203 204 205 206 207 206 206 207 208 208 209 210 209 210 211 212 212 213 214 215 217 220 222 223 223 224 225 225 225 224 224 224 224 225 226 227 228 229 229 231 231 232 233 234 234 234 233 233 235 236 237 237 236 236 234 232 231 228 224 222 221 224 225 225 224 225 224 222 221 221 220 219 219 219 218 218 223
197 196 197 196 197 198 199 201 202 204 205 206 206 206 206 207 208 209 209 209 209 210 211 211 212 213 214 215 217 220 223 224 224 225 226 227 227 226 226 227 228 228 229 230 230 231 231 231 231 233 233 234 234 234 233 233 232 233 233 233 234 234 234 234 234 232 229 226 225 228 230 228 227 229 228 224 221 220 218 217 218 218 218 222 228
198 196 196 196 196 196 198 199 201 203 205 205 206 207 208 208 209 209 208 208 209 210 211 211 213 214 215 216 217 219 222 225 226 226 227 227 228 228 228 228 230 232 233 233 233 234 234 234 234 235 235 235 235 234 233 233 231 231 231 231 231 232 232 234 234 232 231 230 230 232 234 233 232 232 229 225 224 223 222 222 222 221 220 222 226
199 195 195 196 195 195 197 198 200 201 202 203 205 208 209 209 209 209 209 209 210 211 212 213 214 215 216 218 219 221 223 225 226 228 228 228 228 228 228 228 231 233 235 236 236 237 237 237 237 237 237 237 236 236 235 234 231 230 231 230 231 231 232 235 235 234 234 233 233 235 236 236 235 234 230 227 226 225 224 224 223 219 214 212 213
199 195 195 196 195 195 196 197 198 200 200 202 204 207 209 210 210 209 209 210 211 212 213 215 216 217 218 219 221 223 226 227 227 228 229 229 228 227 226 228 231 234 236 237 238 240 240 239 239 239 240 240 239 238 238 236 234 232 231 231 231 232 234 236 236 235 236 236 236 236 237 237 237 236 233 230 228 224 219 216 215 209 204 202 204
200 195 195 196 195 195 196 197 198 198 199 201 204 206 208 210 210 210 210 211 212 214 215 216 218 219 220 222 223 226 228 230 231 231 230 229 228 227 226 228 231 235 237 239 240 241 242 242 242 241 242 243 243 242 240 239 237 235 234 233 232 233 237 237 235 235 237 237 237 237 237 237 237 236 234 231 229 224 218 215 213 206 201 202 201
202 197 195 195 195 195 196 197 198 198 200 202 204 205 207 209 210 211 211 213 215 216 217 218 220 221 223 225 227 229 231 233 234 235 234 231 229 229 227 228 231 234 237 239 241 243 245 246 245 245 245 247 246 245 244 241 239 238 237 235 234 237 240 237 234 235 236 235 235 235 235 235 235 234 234 231 228 225 221 219 214 205 201 203 201
206 201 196 194 195 195 196 197 198 199 200 202 204 205 206 208 209 210 212 214 216 218 219 220 221 223 225 227 230 232 234 236 237 238 239 237 234 231 228 228 230 233 236 239 242 244 246 248 249 249 249 250 250 249 247 245 242 241 239 236 236 241 244 241 237 237 236 235 235 234 233 233 232 231 231 228 225 224 223 221 216 209 205 203 200
207 203 196 192 193 194 196 197 198 199 200 201 202 204 205 206 207 209 211 213 214 216 218 220 221 224 225 227 230 233 235 237 239 240 242 241 240 237 233 231 232 234 236 240 243 245 248 249 251 252 252 253 253 252 251 250 248 245 242 240 242 246 247 245 242 239 237 236 236 234 233 232 230 229 228 226 223 222 220 220 217 213 209 205 202
205 201 195 191 191 192 194 196 197 197 198 199 199 201 203 205 207 209 210 211 213 215 218 220 223 225 226 227 230 233 236 239 241 244 245 245 244 243 240 240 240 237 237 239 242 245 248 250 253 255 255 255 256 255 254 253 252 250 248 248 249 249 248 246 244 240 236 235 234 232 231 229 227 226 226 224 223 220 218 217 216 214 212 211 209
201 197 193 189 189 191 192 193 194 194 195 196 197 198 201 203 206 208 209 209 212 214 216 219 223 225 226 226 227 230 234 237 239 241 243 244 244 243 243 246 245 241 237 240 244 247 250 252 255 256 257 258 259 258 258 256 255 254 254 254 254 252 250 247 245 241 237 235 233 231 229 227 224 223 223 222 222 219 217 215 214 213 212 213 214
194 191 189 187 187 188 189 189 191 192 193 194 195 196 198 201 204 207 207 208 209 211 214 215 217 221 224 222 221 224 227 229 232 235 238 239 240 240 241 242 241 238 235 238 244 249 253 255 256 257 259 260 261 261 260 259 258 258 258 258 257 255 251 248 246 243 239 235 233 233 232 228 225 223 222 221 221 219 217 215 213 212 211 210 211
186 186 185 183 184 184 185 187 188 189 191 192 193 195 197 199 201 203 204 204 205 205 206 207 210 212 215 217 220 219 210 200 201 214 227 233 235 239 243 245 245 244 244 246 250 255 258 261 263 264 265 267 268 268 266 263 261 261 261 261 260 256 252 248 247 245 241 237 235 236 236 233 229 227 225 221 218 217 215 212 210 209 208 205 205
179 180 179 178 180 180 181 183 184 187 190 193 194 196 197 198 198 199 200 200 200 198 197 199 201 200 200 205 207 192 156 137 133 133 131 134 157 198 227 245 252 256 260 263 264 265 266 268 269 270 271 271 272 274 273 271 271 270 268 266 263 259 254 250 248 246 243 240 239 238 238 237 234 230 225 219 214 212 211 208 204 201 200 197 196
171 172 171 171 173 175 176 177 180 183 187 191 194 196 197 197 197 197 196 195 193 192 191 190 190 191 193 191 174 143 125 118 113 108 107 100 91 89 72 314 282 280 283 280 277 275 273 273 274 275 275 275 275 276 277 277 277 276 273 271 267 263 259 254 251 249 246 243 242 241 241 240 237 230 222 216 212 210 208 202 196 195 196 194 192
159 161 163 165 166 169 172 173 173 172 173 177 182 187 191 192 191 190 192 192 187 184 182 181 182 182 175 157 134 116 108 107 105 99 94 85 68 42 357 325 306 300 296 289 286 285 283 283 284 284 285 286 286 286 285 283 282 280 277 274 271 268 265 261 256 254 252 249 248 246 244 240 237 229 221 215 213 210 203 195 194 197 195 190 188
149 153 160 164 167 171 171 165 159 153 146 143 142 147 165 176 176 173 178 185 186 184 177 163 155 150 140 131 127 117 106 101 99 95 90 80 59 27 353 333 322 318 311 305 304 304 304 305 305 303 302 301 298 296 293 290 288 285 281 277 274 269 265 261 256 255 254 253 251 250 247 242 236 229 220 213 210 205 196 191 194 198 193 186 185
143 151 160 166 171 172 160 148 145 143 138 130 119 108 112 130 139 137 139 155 171 174 162 144 138 137 128 118 117 117 111 105 98 90 83 75 60 45 31 20 13 11 7 -0 356 353 346 338 331 325 319 313 307 303 301 300 297 294 291 287 282 276 269 262 257 256 255 254 252 251 249 244 236 227 217 208 201 196 193 193 193 191 187 185 184
128 138 150 157 162 155 141 133 133 132 130 126 120 109 100 98 102 104 108 119 131 135 132 125 125 130 125 114 107 105 102 98 90 82 76 72 67 62 55 50 43 34 28 22 16 9 360 346 337 331 324 317 310 306 304 303 300 297 297 295 290 285 280 273 267 263 260 257 255 255 252 247 238 225 212 202 194 190 191 192 190 187 185 185 183
106 108 115 122 129 132 129 127 126 124 123 123 122 117 108 100 95 94 97 102 109 114 117 116 113 113 114 113 109 103 97 92 86 81 79 79 77 70 61 55 46 34 26 20 13 6 358 346 336 331 325 318 314 311 308 304 300 297 296 294 291 288 285 281 278 274 267 260 256 254 253 249 240 226 213 203 194 188 185 184 183 183 183 181 179
101 100 102 106 111 119 123 124 124 124 123 123 123 122 119 114 108 102 99 98 99 101 103 105 104 102 101 103 103 101 98 93 86 83 86 86 81 73 63 54 43 33 27 19 10 3 357 347 336 330 325 319 316 316 312 308 304 300 295 291 288 287 284 282 282 280 275 268 261 256 252 249 242 229 215 206 196 186 180 180 179 176 174 173 171
98 98 100 102 105 110 117 120 122 123 124 123 122 121 120 120 118 114 109 105 101 98 94 92 92 93 94 97 98 99 100 94 85 84 83 75 70 68 64 55 44 35 28 21 11 1 353 345 337 332 328 325 323 322 319 315 311 306 300 296 292 289 288 287 284 280 278 276 271 264 257 251 243 229 213 204 197 187 180 177 175 170 167 167 165
97 96 98 100 102 105 109 114 119 121 122 123 123 122 123 122 121 119 117 114 110 105 97 89 84 82 87 93 96 95 94 85 76 74 69 61 59 59 58 54 45 35 28 20 10 2 354 346 340 336 333 332 332 329 326 323 320 317 313 309 304 301 299 295 288 282 277 274 271 268 263 258 252 241 220 205 196 188 179 172 167 164 162 160 158
97 94 94 95 99 103 104 107 111 114 116 117 118 118 118 117 116 115 114 114 115 112 102 90 79 73 77 88 98 96 87 74 68 69 70 67 63 57 54 49 40 29 24 17 8 3 0 355 348 344 343 343 342 339 339 339 338 336 334 328 322 319 317 312 303 292 281 272 268 266 264 261 257 248 231 215 202 188 176 166 159 155 155 153 151
98 97 97 98 100 103 104 103 104 106 109 111 112 111 110 108 109 111 112 114 116 114 105 92 75 65 67 80 96 95 81 63 59 65 66 64 62 60 56 48 37 27 23 17 9 6 5 1 356 353 353 353 351 350 352 354 353 352 351 348 345 345 351 359 353 334 315 296 276 261 258 262 256 238 221 212 201 180 161 152 146 142 143 144 141
105 104 103 103 103 104 105 104 104 104 106 108 108 107 106 104 105 108 111 115 116 114 107 96 78 67 65 75 89 93 84 68 61 62 59 53 51 52 50 44 37 31 24 16 12 13 11 5 2 2 3 2 0 359 358 358 358 360 3 5 6 5 8 19 25 23 18 6 337 290 277 18 299 235 179 140 147 148 134 124 119 119 124 128 127
114 111 109 108 107 107 106 105 104 104 107 109 110 109 108 109 110 110 112 116 118 116 108 94 80 72 73 81 90 93 88 77 70 69 62 50 44 44 42 38 37 34 28 19 15 18 17 11 7 10 12 11 7 4 3 3 5 8 10 14 16 12 7 13 24 31 37 40 42 54 68 67 63 69 78 80 84 96 101 103 106 109 114 120 126
109 106 104 103 103 103 103 102 100 99 101 105 108 108 108 109 110 108 105 105 112 114 105 91 82 80 82 88 92 91 86 80 78 76 67 53 46 44 39 35 34 34 30 22 19 21 22 19 17 19 20 19 16 13 11 12 17 21 21 18 18 15 10 15 31 40 46 55 63 68 73 74 74 75 77 79 81 83 87 95 105 114 121 128 137
106 102 100 99 100 100 99 97 93 92 97 104 107 108 108 107 107 106 98 92 101 108 102 90 86 91 94 92 87 85 92 93 83 69 59 54 53 51 42 35 36 36 32 27 25 28 30 28 26 27 26 25 26 24 22 23 29 34 35 31 27 24 20 21 33 46 51 57 69 79 85 86 85 84 83 84 88 94 101 109 117 126 133 139 146
106 103 100 99 98 95 91 85 80 80 83 88 92 95 96 94 93 92 83 77 90 106 106 95 88 88 93 96 93 89 96 100 83 67 65 69 67 61 53 45 43 42 38 33 33 37 39 38 35 32 29 29 31 31 32 36 39 41 44 44 39 36 36 34 36 47 57 61 67 79 88 92 95 97 98 101 107 114 121 125 129 136 141 146 153
92 89 87 86 84 82 80 78 76 74 73 73 73 74 75 74 70 68 64 63 70 82 86 80 70 62 62 79 100 103 99 91 77 66 64 63 62 60 56 50 48 46 41 38 40 44 46 46 44 42 38 36 36 36 36 41 44 46 49 52 51 48 49 51 51 55 65 71 74 78 86 93 99 105 109 114 120 125 128 131 138 145 151 155 162
88 85 83 80 78 76 75 74 73 72 70 70 69 67 67 66 63 61 60 59 60 61 60 57 54 52 51 57 73 88 87 77 68 64 60 53 46 42 39 39 45 46 41 38 41 47 49 48 47 48 47 45 43 41 37 35 38 40 41 48 54 53 53 58 63 66 71 77 83 87 93 100 106 111 115 118 121 124 129 137 145 155 163 166 167
86 84 82 79 77 75 73 72 72 70 69 68 66 62 61 61 60 59 58 58 57 58 56 53 52 50 49 48 52 57 62 60 58 58 58 49 40 37 39 42 48 47 42 39 41 47 52 51 45 42 44 44 42 40 35 31 33 37 37 42 49 52 54 61 68 71 75 82 90 97 103 108 112 116 120 125 129 132 136 143 150 159 168 172 173
83 83 83 82 79 76 74 72 70 69 67 66 64 62 61 60 59 59 58 58 57 57 56 54 52 50 47 46 46 47 51 54 52 50 48 43 37 37 43 52 57 55 49 48 53 56 54 49 42 38 41 43 41 39 38 37 37 38 40 45 49 48 49 57 66 70 75 82 91 101 108 114 121 126 129 132 139 150 160 166 167 169 173 176 178
77 77 79 80 80 78 75 73 70 69 67 66 65 64 63 61 60 58 58 57 58 57 57 56 56 53 51 50 48 45 46 49 48 47 47 45 41 40 45 55 65 66 60 57 59 59 53 48 46 45 46 49 52 54 53 51 48 45 44 48 51 48 47 50 57 68 77 80 85 95 103 107 118 132 139 138 141 153 162 165 163 162 164 167 170
73 73 74 76 76 75 74 72 71 69 68 67 67 66 64 61 59 57 55 55 54 53 54 55 56 55 54 55 54 53 52 51 50 49 50 49 47 47 50 58 67 71 67 60 56 54 55 59 63 62 59 60 66 68 65 61 58 56 54 54 56 57 59 60 61 67 76 79 81 95 111 111 114 137 157 154 138 135 138 141 143 144 146 150 157
74 73 73 73 73 73 72 72 72 71 71 71 70 66 62 60 58 57 58 58 56 52 52 52 53 54 55 55 55 55 54 52 51 50 51 52 53 53 56 62 69 74 73 67 61 58 61 69 74 74 71 71 73 74 70 66 62 58 57 57 57 58 63 67 67 70 74 78 81 94 113 116 111 123 141 143 134 128 129 133 138 144 149 152 153
74 74 74 73 73 73 74 73 74 73 73 72 70 66 63 62 60 58 59 61 61 57 54 52 51 52 53 52 52 52 51 50 50 48 47 51 55 56 57 62 69 73 73 70 65 61 60 63 67 70 73 76 77 73 68 64 59 53 50 51 54 54 57 64 68 71 75 78 81 87 98 105 104 107 121 132 132 128 130 135 140 147 155 163 167
73 73 74 74 74 75 75 75 74 73 72 71 71 70 67 65 62 60 59 59 59 57 54 53 53 52 50 50 51 52 51 51 51 49 47 48 52 55 56 59 65 69 69 68 65 61 58 57 59 62 65 69 71 68 65 63 58 53 47 46 49 52 51 51 53 57 62 69 73 74 79 85 85 83 87 102 121 131 133 137 140 137 133 147 169